Location: Boitzum
(52.1496°N, 9.6943°E)
Time: 23:28:44
(UTC+00:00)

Cosmos 2082 Rocket - Pass Details

Date: 13 January 2026
Orbit: 832 x 853 km, 71.0° (Epoch: 9 February)

Event Time Altitude Azimuth Distance (km) Brightness Sun altitude
Exits shadow 05:23:16 15° 333° (NNW) 2,144 3.9 -17.8°
Maximum altitude 05:28:04 74° 57° (ENE) 883 2.4 -17.1°
Drops below altitude 10° 05:33:44 10° 143° (SE) 2,469 5.4 -16.2°
Sets 05:36:12 0° 145° (SE) 3,404 6.2 -15.9°
